This is the latest recevied weather packets stored in our database for station/object SP3ZBZ-13. If no packets are shown the sender has not sent any weather packets the latest 10 day(s).
| Time | Temp. | Humidity | Pressure | Rain* | Wind** | Luminosity | Snow |
|---|---|---|---|---|---|---|---|
| 1788309350 | 15° C | 87% | 1013.5 hPa | 4.06 mm | - | - | - |
| 1788308449 | 15.56° C | 87% | 1013.5 hPa | 4.06 mm | - | - | - |
| 1788307547 | 15° C | 87% | 1013.4 hPa | 4.06 mm | - | - | - |
| 1788306646 | 15° C | 89% | 1013.5 hPa | 4.06 mm | - | - | - |
| 1788305745 | 14.44° C | 89% | 1013.4 hPa | 4.06 mm | - | - | - |
| 1788304844 | 14.44° C | 89% | 1013.4 hPa | 4.06 mm | - | - | - |
| 1788303943 | 14.44° C | 89% | 1013.4 hPa | 4.06 mm | - | - | - |
| 1788303042 | 14.44° C | 89% | 1013.4 hPa | 4.06 mm | - | - | - |
| 1788302141 | 15° C | 87% | 1013.4 hPa | 4.06 mm | - | - | - |
| 1788301239 | 15.56° C | 86% | 1013.4 hPa | 4.06 mm | - | - | - |
| 1788300338 | 15.56° C | 85% | 1013.5 hPa | 4.06 mm | - | - | - |
| 1788299437 | 15.56° C | 85% | 1013.5 hPa | 4.06 mm | - | - | - |
| 1788298537 | 15.56° C | 83% | 1013.4 hPa | 4.06 mm | - | - | - |
| 1788297636 | 15.56° C | 86% | 1013.3 hPa | 4.06 mm | - | - | - |
| 1788296735 | 15.56° C | 87% | 1013.3 hPa | 4.06 mm | - | - | - |
| 1788295834 | 15.56° C | 89% | 1013.2 hPa | 4.06 mm | - | - | - |
| 1788294933 | 15.56° C | 89% | 1013.2 hPa | 4.06 mm | - | - | - |
| 1788294032 | 15.56° C | 91% | 1013.1 hPa | 4.06 mm | - | - | - |
| 1788293131 | 15.56° C | 90% | 1013.1 hPa | 4.06 mm | - | - | - |
| 1788292230 | 15.56° C | 90% | 1013.1 hPa | 4.06 mm | - | - | - |
| 1788291329 | 16.11° C | 87% | 1013.2 hPa | 3.81 mm | - | - | - |
| 1788290428 | 15.56° C | 89% | 1013.3 hPa | 3.56 mm | - | - | - |
| 1788289527 | 15° C | 92% | 1012.9 hPa | 3.3 mm | - | - | - |
| 1788288627 | 15.56° C | 92% | 1012.9 hPa | 3.3 mm | - | - | - |
| 1788287726 | 15.56° C | 91% | 1012.8 hPa | 3.3 mm | - | - | - |
* Rain latest 24 hours (hover to see other rain measurements)
** Current wind speed in m/s (hover to see current wind gust speed)